San Antonio, TX

5:17 AM CST on February 26, 2017 (GMT -0600)
Stinson Municipal

Weather History for KSSF - January, 2013

Change the Weather History Date:

Saturday, January 5, 2013

  Actual Average Record
Temperature  
Mean Temperature 46 °F -  
Max Temperature 55 °F 62 °F 78 °F (2008)
Min Temperature 36 °F 40 °F 24 °F (1999)
Degree Days  
Heating Degree Days 19    
Moisture  
Dew Point 38 °F    
Average Humidity 76    
Maximum Humidity 100    
Minimum Humidity 55    
Precipitation  
Precipitation 0.00 in - - ()
Sea Level Pressure  
Sea Level Pressure 30.33 in    
Wind  
Wind Speed 2 mph (ENE)    
Max Wind Speed 8 mph    
Max Gust Speed -    
Visibility 10 miles    
Events      
Averages and records for this station are not official NWS values.
T = Trace of Precipitation, MM = Missing Value Source: NWS Daily Summary

Daily Weather History Graph

Daily Weather History Graph

Search for Another Location

Airport or City:

Trip Planner

Search our weather history database for the weather conditions in past years. The results will help you decide how hot, cold, wet, or windy it might be!

Date:

Astronomy

Jan. 05, 2013 Rise Set
Actual Time 7:29 AM CST 5:49 PM CST
Civil Twilight 7:03 AM CST 6:15 PM CST
Nautical Twilight 6:33 AM CST 6:45 PM CST
Astronomical Twilight 6:04 AM CST 7:14 PM CST
Moon 12:52 AM CST (1/5) 12:27 PM CST (1/5)
Length of Visible Light 11h 12m
Length of Day
10h 20m
Last Quarter, 44% of the Moon is Illuminated
Jan 5
Last Quarter
Jan 11
New
Jan 18
First Quarter
Jan 26
Full
Feb 3
Last Quarter

Hourly Weather History & Observations

Time (CST) Temp. Windchill Dew Point Humidity Pressure Visibility Wind Dir Wind Speed Gust Speed Precip Events Conditions
12:53 AM 42.1 °F 40.2 °F 37.0 °F 82% 30.40 in 10.0 mi NNE 3.5 mph - N/A   Overcast
1:53 AM 42.1 °F - 36.0 °F 79% 30.39 in 10.0 mi Calm Calm - N/A   Overcast
2:53 AM 42.1 °F 40.2 °F 36.0 °F 79% 30.38 in 10.0 mi North 3.5 mph - N/A   Overcast
3:53 AM 42.1 °F 38.4 °F 36.0 °F 79% 30.39 in 10.0 mi NNW 5.8 mph - N/A   Overcast
4:17 AM 42.8 °F - 35.6 °F 76% 30.36 in 10.0 mi Calm Calm - N/A   Overcast
4:53 AM 42.1 °F - 36.0 °F 79% 30.36 in 10.0 mi Calm Calm - N/A   Overcast
5:53 AM 42.1 °F 40.2 °F 36.0 °F 79% 30.36 in 10.0 mi North 3.5 mph - N/A   Overcast
6:53 AM 43.0 °F - 36.0 °F 76% 30.36 in 10.0 mi Calm Calm - N/A   Overcast
7:53 AM 43.0 °F 41.3 °F 37.0 °F 80% 30.38 in 10.0 mi North 3.5 mph - N/A   Overcast
8:53 AM 44.1 °F - 37.0 °F 76% 30.38 in 10.0 mi Calm Calm - N/A   Overcast
9:53 AM 45.0 °F - 37.9 °F 76% 30.39 in 10.0 mi Calm Calm - 0.00 in   Overcast
10:53 AM 46.0 °F - 37.9 °F 73% 30.38 in 10.0 mi Calm Calm - N/A   Overcast
11:53 AM 48.0 °F - 37.9 °F 68% 30.35 in 10.0 mi Calm Calm - N/A   Overcast
12:53 PM 50.0 °F - 37.9 °F 63% 30.30 in 10.0 mi Calm Calm - N/A   Overcast
1:53 PM 54.0 °F - 37.9 °F 55% 30.26 in 10.0 mi Variable 3.5 mph - N/A   Clear
2:53 PM 55.9 °F - 39.9 °F 55% 30.24 in 10.0 mi Variable 6.9 mph - N/A   Clear
3:53 PM 55.9 °F - 39.9 °F 55% 30.24 in 10.0 mi SE 3.5 mph - N/A   Clear
4:53 PM 55.0 °F - 39.9 °F 57% 30.24 in 10.0 mi ESE 8.1 mph - N/A   Clear
5:53 PM 51.1 °F - 39.9 °F 66% 30.25 in 10.0 mi SE 4.6 mph - N/A   Clear
6:53 PM 46.9 °F - 39.9 °F 77% 30.27 in 10.0 mi ESE 5.8 mph - N/A   Clear
7:53 PM 44.1 °F 41.5 °F 39.9 °F 85% 30.29 in 10.0 mi ESE 4.6 mph - N/A   Clear
8:53 PM 41.0 °F - 39.0 °F 93% 30.30 in 10.0 mi Calm Calm - N/A   Clear
9:53 PM 39.0 °F - 37.9 °F 96% 30.31 in 8.0 mi Calm Calm - N/A   Clear
10:53 PM 37.9 °F - 37.0 °F 97% 30.32 in 6.0 mi Calm Calm - N/A   Clear
11:53 PM 36.0 °F - 36.0 °F 100% 30.33 in 5.0 mi Calm Calm - N/A   Clear